[[{"header":{"parameterUnit":"m.s-1","parameterCategory":1,"la1":30.2992,"la2":30.254,"lo1":-89.0895,"lo2":-89.0443,"dy":0.0025,"dx":0.0025,"nx":19,"ny":19,"refTime":"2026-04-17T21:00:00:Z","depth":0,"parameterNumber":2,"parameterNumberName":"U-component_of_WINDS"},"data":[0,0,0,1.8232,1.8233,1.8293,1.8293,1.837,1.837,0,0,0,0,0,0,0,0,0,0,0,1.8217,1.8217,1.8232,1.8233,1.8293,1.8293,1.837,1.837,0,0,0,0,0,0,0,0,0,0,0,1.8216,1.8217,1.8218,1.8234,1.8293,1.8293,1.8369,1.8324,0,0,0,0,0,0,0,0,0,0,1.8266,1.8255,1.8217,1.8218,1.8234,1.8293,1.8293,1.8322,1.8327,1.8343,0,1.8361,0,1.8367,1.8376,1.8376,0,0,0,1.8231,1.825,1.8264,1.8218,1.8234,1.8293,1.8265,1.8324,1.833,1.835,1.8362,1.8365,1.8368,1.8376,1.8377,1.8482,1.8482,0,0,1.8228,1.8228,1.826,1.8268,1.8261,1.8264,1.8267,1.8328,1.834,1.8362,1.8366,1.8369,1.8377,1.8377,1.8481,1.8482,0,0,0,1.822,1.8226,1.8239,1.8265,1.8276,1.8265,1.827,1.8337,1.8341,1.8367,1.837,1.8377,1.8378,1.8481,1.8482,1.8509,0,0,0,1.8218,1.8221,1.8237,1.8238,1.8275,1.8308,1.8278,1.8337,1.8344,1.837,1.8377,1.8379,1.848,1.8481,1.8507,1.8522,0,0,0,1.8212,1.8221,1.823,1.8238,1.8264,1.8307,1.8314,1.8339,1.8346,1.8376,1.8379,1.848,1.8481,1.8506,1.8519,1.8548,0,0,0,1.8205,1.8256,1.8231,1.8288,1.8263,1.8325,1.8314,1.836,1.8389,1.8378,1.848,1.8481,1.8505,1.8517,1.8546,1.8571,1.8582,0,0,1.8269,1.8264,1.8297,1.8276,1.8342,1.8316,1.8385,1.8411,1.8414,1.8458,1.8461,1.8508,1.8519,1.8547,1.8647,1.8656,0,0,0,1.8318,1.8341,1.8359,1.8387,1.8408,1.8426,1.8442,1.8451,1.8489,1.8437,1.8527,1.8534,1.855,1.8562,1.8569,1.8582,1.8488,1.8487,1.8487,1.8409,1.8408,1.8462,1.8468,1.8495,1.8509,1.8529,1.8544,1.8537,1.8558,1.8571,1.8631,1.8645,1.8651,1.8664,1.8585,1.8586,1.8586,1.8586,1.85,1.8532,1.8519,1.8567,1.8565,1.8605,1.8619,1.8612,1.8646,1.8622,1.8637,1.8609,1.866,1.8672,1.8588,1.8588,1.8587,1.8587,1.8587,1.8558,1.8573,1.8583,1.862,1.8648,1.8652,1.8685,1.8683,1.8681,1.8696,1.8707,1.8706,1.8703,1.8702,1.8702,1.8702,1.8702,1.8702,1.8702,1.8613,1.8623,1.8652,1.8676,1.8691,1.8711,1.8724,1.8739,1.8754,1.8749,1.8749,1.8738,1.8667,1.8647,1.8706,1.8705,1.8705,1.8704,1.8704,1.8702,1.8681,1.8725,1.874,1.8766,1.8792,1.8789,1.8818,1.883,1.8845,1.8831,1.8779,1.8773,1.8767,1.8751,1.8833,1.8833,1.8833,1.8833,1.8749,1.8746,1.8788,1.8812,1.8835,1.8835,1.8881,1.889,1.8896,1.8903,1.8891,1.887,1.8864,1.8861,1.8853,1.8838,1.894,1.894,1.894,1.8802,1.88,1.8841,1.8847,1.8866,1.8882,1.8924,1.895,1.8953,1.8944,1.8907,1.8902,1.8868,1.8858,1.8848,1.8835,1.8807,0,0]},{"header":{"parameterUnit":"m.s-1","parameterCategory":1,"la1":30.2992,"la2":30.254,"lo1":-89.0895,"lo2":-89.0443,"dy":0.0025,"dx":0.0025,"nx":19,"ny":19,"refTime":"2026-04-17T21:00:00:Z","depth":0,"parameterNumber":3,"parameterNumberName":"V-component_of_WINDS"},"data":[0,0,0,5.6116,5.6119,5.6222,5.6222,5.6365,5.6367,0,0,0,0,0,0,0,0,0,0,0,5.6097,5.6098,5.6116,5.6119,5.6222,5.6222,5.6365,5.6367,0,0,0,0,0,0,0,0,0,0,0,5.6096,5.6098,5.61,5.612,5.6222,5.6222,5.6365,5.6282,0,0,0,0,0,0,0,0,0,0,5.618,5.6174,5.6098,5.61,5.612,5.6222,5.6222,5.6278,5.6287,5.6325,0,5.6365,0,5.6368,5.6377,5.6378,0,0,0,5.611,5.6166,5.6184,5.61,5.6121,5.6222,5.6173,5.6283,5.6294,5.6337,5.6367,5.6371,5.6371,5.6378,5.6379,5.6632,5.6634,0,0,5.6105,5.6121,5.6177,5.6192,5.6181,5.617,5.6176,5.6289,5.6321,5.6367,5.6374,5.6373,5.638,5.6381,5.6631,5.6632,0,0,0,5.6094,5.6117,5.6132,5.6186,5.6204,5.6173,5.618,5.6316,5.6319,5.6376,5.6375,5.638,5.6382,5.6629,5.6631,5.6725,0,0,0,5.609,5.6111,5.613,5.6141,5.6202,5.6262,5.6205,5.6311,5.6324,5.6374,5.638,5.6384,5.6627,5.663,5.6719,5.6766,0,0,0,5.6086,5.611,5.6129,5.6142,5.6187,5.626,5.627,5.6314,5.6324,5.6378,5.6384,5.6626,5.663,5.6713,5.6757,5.6836,0,0,0,5.6086,5.6212,5.6131,5.6271,5.6186,5.6319,5.6269,5.6366,5.6424,5.6381,5.6627,5.6631,5.6711,5.6751,5.683,5.6904,5.6937,0,0,5.6254,5.6233,5.6314,5.6244,5.6396,5.6302,5.6465,5.6502,5.6492,5.6585,5.6591,5.6721,5.6756,5.6834,5.712,5.7146,0,0,0,5.6372,5.643,5.6467,5.6524,5.6557,5.6587,5.6597,5.661,5.6689,5.6544,5.6771,5.6792,5.6837,5.6871,5.6894,5.693,5.6648,5.6648,5.6648,5.6632,5.6613,5.6743,5.6736,5.6791,5.68,5.6842,5.686,5.6825,5.6878,5.6905,5.7081,5.7122,5.7139,5.7177,5.6944,5.6945,5.6945,5.6945,5.6874,5.6952,5.69,5.7008,5.6985,5.7075,5.7087,5.7058,5.7135,5.706,5.7098,5.7015,5.7169,5.72,5.6952,5.6951,5.695,5.6949,5.6949,5.704,5.7074,5.7089,5.7167,5.7229,5.7215,5.7292,5.7268,5.7246,5.7285,5.7308,5.7307,5.73,5.7298,5.7299,5.7299,5.73,5.73,5.7301,5.7207,5.722,5.7289,5.7332,5.7364,5.7402,5.741,5.744,5.7466,5.7442,5.7442,5.7399,5.7189,5.7135,5.731,5.7308,5.7307,5.7306,5.7306,5.7456,5.7395,5.7502,5.7533,5.758,5.764,5.761,5.7671,5.7692,5.7729,5.7678,5.7527,5.7503,5.7485,5.744,5.7684,5.7684,5.7684,5.7684,5.7595,5.758,5.7682,5.7733,5.7781,5.7763,5.7879,5.7886,5.7882,5.7893,5.7854,5.7793,5.7776,5.7762,5.7738,5.7695,5.7999,5.7999,5.8,5.7745,5.7734,5.7839,5.7837,5.787,5.7899,5.8006,5.8064,5.8048,5.8012,5.79,5.7886,5.7788,5.7757,5.7718,5.7681,5.7602,0,0]}]]